[[{"header":{"parameterUnit":"m.s-1","parameterCategory":1,"la1":30.2991,"la2":30.254,"lo1":-89.0895,"lo2":-89.0444,"dy":0.0017,"dx":0.0017,"nx":28,"ny":28,"refTime":"2024-11-23T03:00:00:Z","depth":0,"parameterNumber":2,"parameterNumberName":"U-component_of_WINDS"},"data":[0,0,0,0,0,0,0,0,0,0,0,0,0,0,0,0,0,0,0,0,0,0,0,0,0,0,0,0,0,0,0,0,0,0,0,0,0,0,0,0,0,0,0,0,0,0,0,0,0,0,0,0,0,0,0,0,0,0,0.0643,0.0643,0,0.0591,0.0591,0.059,0.0601,0.0602,0.0603,0.0604,0.0547,0.0545,0.0542,0,0,0,0,0,0,0,0,0,0,0,0,0,0.0751,0.0749,0.0644,0.0643,0.0642,0.0591,0.0591,0.059,0.0601,0.0602,0.0603,0.0604,0.0548,0.0545,0.0542,0,0,0,0,0,0,0,0,0,0,0,0,0,0.0702,0.0748,0.0644,0.0642,0.0641,0.0591,0.0591,0.059,0.0601,0.0602,0.0604,0.0605,0.0549,0.0545,0.0542,0.049,0,0,0.0531,0.0529,0,0,0,0,0,0,0,0,0.0705,0.0698,0.0643,0.0642,0.0641,0.0604,0.0608,0.0556,0.06,0.0616,0.0604,0.0606,0.0565,0.056,0.0547,0.0487,0.0485,0.053,0.0528,0.0526,0.0525,0,0,0,0,0,0,0,0.0708,0.07,0.0623,0.0642,0.0641,0.0643,0.0637,0.0598,0.0583,0.0615,0.0615,0.0609,0.0564,0.055,0.0545,0.0484,0.053,0.0527,0.0525,0.0523,0.038,0.0378,0,0,0,0,0,0,0.0713,0.0703,0.0624,0.0621,0.0677,0.064,0.0634,0.0614,0.0583,0.058,0.0608,0.061,0.0556,0.055,0.0543,0.0481,0.0527,0.0523,0.0521,0.0381,0.0379,0.0378,0,0,0,0,0,0,0.0715,0.0705,0.0627,0.0662,0.0652,0.0636,0.0615,0.0613,0.0598,0.0578,0.0575,0.0596,0.0557,0.0549,0.0503,0.0479,0.0521,0.0518,0.0383,0.0381,0.0378,0.0354,0,0,0,0,0,0,0.0718,0.0706,0.0687,0.0662,0.065,0.0588,0.0613,0.0611,0.0592,0.0594,0.0566,0.0563,0.0557,0.0509,0.05,0.0475,0.0515,0.0385,0.0382,0.0379,0.0357,0.0351,0.0346,0,0,0,0,0,0.0722,0.0681,0.0686,0.0676,0.0626,0.0586,0.058,0.0575,0.059,0.057,0.0558,0.0564,0.0483,0.0504,0.0494,0.0467,0.0387,0.0383,0.0379,0.036,0.0353,0.0347,0,0,0,0,0,0,0.0702,0.0678,0.0682,0.0633,0.0612,0.0588,0.0563,0.0567,0.054,0.0543,0.0537,0.0531,0.0485,0.0472,0.0495,0.0416,0.0437,0.0431,0.0426,0.0419,0.0413,0.0417,0.0512,0,0,0,0,0,0.0692,0.0663,0.0643,0.0601,0.0591,0.0579,0.0561,0.056,0.0537,0.0528,0.0511,0.0488,0.0458,0.0438,0.0409,0.0356,0.035,0.0333,0.0328,0.0323,0.0318,0.0289,0.0281,0.0365,0.0365,0.0366,0,0,0.0671,0.0654,0.0636,0.0597,0.058,0.055,0.0571,0.0537,0.0514,0.0522,0.0478,0.0466,0.044,0.0391,0.0369,0.0379,0.0293,0.0318,0.0315,0.0312,0.0284,0.0276,0.0269,0.0363,0.0363,0.0364,0,0,0.0616,0.0601,0.0564,0.0548,0.0523,0.0516,0.0507,0.0483,0.0476,0.0433,0.0438,0.041,0.0358,0.034,0.0323,0.0264,0.0268,0.0254,0.0225,0.0197,0.0191,0.0185,0.0163,0.0155,0.0249,0.0249,0.0249,0,0.0592,0.0547,0.0545,0.0511,0.0494,0.0502,0.0464,0.0448,0.0414,0.0402,0.0414,0.035,0.0333,0.0279,0.0265,0.0252,0.0241,0.0257,0.0192,0.0186,0.018,0.0159,0.0151,0.0248,0.0248,0.0248,0.0248,0,0.0519,0.0487,0.0461,0.043,0.041,0.0374,0.0366,0.0346,0.0347,0.0338,0.0294,0.0274,0.0241,0.0229,0.0228,0.0176,0.0183,0.0194,0.0215,0.0171,0.0151,0.0143,0.0245,0.0246,0.0246,0.0247,0,0,0.0448,0.0418,0.0408,0.0394,0.0368,0.0344,0.0309,0.0278,0.0261,0.0238,0.0208,0.0165,0.0175,0.0157,0.0154,0.013,0.0084,0.0144,0.0143,0.0133,0.0024,0.0015,0.0006,0.0088,0.0086,0.0085,0.0026,0,0.039,0.0329,0.0327,0.0271,0.0242,0.025,0.022,0.0201,0.0192,0.0165,0.0156,0.0125,0.0141,0.013,0.0107,0.0095,0.0062,0.0099,0.0059,0.0057,0.0064,-0.0004,-0.0014,-0.0069,0.0019,0.0017,0.0016,0,0.0314,0.029,0.0232,0.0211,0.0199,0.0172,0.0144,0.0119,0.0097,0.0093,0.0073,0.0075,0.0039,0.0063,0.0013,0.0038,0.0022,0.0014,0.0012,0.0006,0.0033,-0.0012,-0.0086,-0.0095,0.0004,0.0005,0.0006,0,0.0267,0.0221,0.018,0.0168,0.0143,0.0124,0.0112,0.0093,0.0075,0.005,0.0038,0.001,-0.0006,-0.0028,-0.0034,-0.0016,-0.0084,-0.0061,-0.009,-0.009,-0.0106,-0.0106,-0.0185,-0.0115,-0.0114,-0.0114,-0.0114,0,0.0202,0.0166,0.0159,0.0133,0.0093,0.0091,0.0051,0.0041,0.0024,-0.0004,0.0002,-0.0024,-0.003,-0.0057,-0.0062,-0.0103,-0.011,-0.0115,-0.0116,-0.0116,-0.0116,-0.0128,-0.0125,-0.0116,-0.0116,-0.0116,-0.0115,0,0.0142,0.0136,0.0092,0.0073,0.0067,0.0038,0.0021,-0.0003,-0.001,-0.0045,-0.0053,-0.0064,-0.0096,-0.0103,-0.0141,-0.0144,-0.0193,-0.019,-0.0186,-0.0186,-0.0215,-0.0212,-0.0307,-0.0319,-0.0239,-0.024,-0.024,0,0.01,0.0072,0.0051,0.0034,0.0022,-0.0007,-0.0024,-0.0027,-0.0046,-0.0071,-0.0093,-0.0123,-0.0148,-0.0199,-0.0211,-0.024,-0.0238,-0.0269,-0.0243,-0.0242,-0.024,-0.0238,-0.0241,-0.0275,-0.0276,-0.0276,-0.0277,0,0.0026,0.0025,-0.0001,-0.0027,-0.0048,-0.0069,-0.0089,-0.0104,-0.0109,-0.013,-0.0162,-0.0181,-0.0218,-0.0249,-0.0277,-0.029,-0.0285,-0.0284,-0.0293,-0.0294,-0.0291,-0.0294,-0.0201,-0.0283,-0.0282,-0.0282,-0.0282,-0.0281,-0.0028,-0.0051,-0.007,-0.0098,-0.0113,-0.0131,-0.0155,-0.0164,-0.019,-0.022,-0.022,-0.0254,-0.0274,-0.0312,-0.0325,-0.0353,-0.0343,-0.0355,-0.0359,-0.0362,-0.0365,-0.0285,-0.0358,-0.0358,-0.0357,-0.0357,-0.0357,0,-0.0102,-0.0113,-0.0139,-0.0166,-0.0188,-0.0179,-0.02,-0.022,-0.025,-0.0268,-0.0292,-0.0328,-0.0357,-0.0371,-0.0399,-0.0419,-0.0417,-0.0426,-0.0426,-0.0429,-0.0371,-0.0361,-0.0427,-0.0427,-0.0427,-0.0427,-0.0427,-0.0427,-0.0144,-0.0184,-0.0186,-0.0233,-0.0244,-0.0277,-0.029,-0.0307,-0.0322,-0.0361,-0.0385,-0.0393,-0.041,-0.0439,-0.0466,-0.0469,-0.048,-0.0491,-0.0493,-0.044,-0.0433,-0.0426,-0.0417,-0.0493,-0.0493,-0.0548,-0.0549,-0.0549]},{"header":{"parameterUnit":"m.s-1","parameterCategory":1,"la1":30.2991,"la2":30.254,"lo1":-89.0895,"lo2":-89.0444,"dy":0.0017,"dx":0.0017,"nx":28,"ny":28,"refTime":"2024-11-23T03:00:00:Z","depth":0,"parameterNumber":3,"parameterNumberName":"V-component_of_WINDS"},"data":[0,0,0,0,0,0,0,0,0,0,0,0,0,0,0,0,0,0,0,0,0,0,0,0,0,0,0,0,0,0,0,0,0,0,0,0,0,0,0,0,0,0,0,0,0,0,0,0,0,0,0,0,0,0,0,0,0,0,-5.0083,-5.0085,0,-5.0221,-5.0223,-5.0224,-5.0147,-5.0143,-5.0139,-5.0136,-5.0273,-5.028,-5.0287,0,0,0,0,0,0,0,0,0,0,0,0,0,-4.9749,-4.9756,-5.0083,-5.0085,-5.0087,-5.0221,-5.0223,-5.0225,-5.0147,-5.0143,-5.0138,-5.0134,-5.027,-5.0279,-5.0288,0,0,0,0,0,0,0,0,0,0,0,0,0,-4.9891,-4.9758,-5.0083,-5.0064,-5.0064,-5.0221,-5.0223,-5.0225,-5.0148,-5.0143,-5.0137,-5.0132,-5.0268,-5.0278,-5.0289,-5.047,0,0,-5.0322,-5.0327,0,0,0,0,0,0,0,0,-4.9883,-4.9904,-5.0065,-5.0066,-5.0066,-5.0161,-5.0155,-5.0307,-5.015,-5.0116,-5.0135,-5.0129,-5.024,-5.0253,-5.0291,-5.0476,-5.0482,-5.0323,-5.0329,-5.0334,-5.0337,0,0,0,0,0,0,0,-4.9874,-4.9897,-5.0138,-5.0068,-5.0068,-5.0048,-5.0062,-5.0184,-5.0208,-5.0119,-5.0114,-5.0131,-5.0239,-5.0281,-5.0294,-5.0484,-5.0323,-5.0332,-5.0339,-5.0343,-5.0824,-5.083,0,0,0,0,0,0,-4.9865,-4.9889,-5.0133,-5.0142,-4.9959,-5.0059,-5.0074,-5.0136,-5.0207,-5.0212,-5.0136,-5.0127,-5.0265,-5.0281,-5.0298,-5.0514,-5.0334,-5.0344,-5.035,-5.0818,-5.0825,-5.0832,0,0,0,0,0,0,-4.9859,-4.9888,-5.0128,-5.0014,-5.0043,-5.007,-5.0141,-5.0142,-5.0184,-5.022,-5.0223,-5.0174,-5.0261,-5.0283,-5.0428,-5.0518,-5.0349,-5.0359,-5.081,-5.082,-5.0829,-5.0949,0,0,0,0,0,0,-4.9849,-4.9886,-4.9956,-5.0017,-5.005,-5.0257,-5.0146,-5.0149,-5.0203,-5.0193,-5.0257,-5.0262,-5.0258,-5.0412,-5.0439,-5.053,-5.0367,-5.0802,-5.0815,-5.0826,-5.0937,-5.0961,-5.0982,0,0,0,0,0,-4.9838,-4.9984,-4.996,-4.999,-5.0138,-5.0262,-5.0281,-5.0275,-5.0211,-5.0281,-5.0304,-5.026,-5.0504,-5.0428,-5.0457,-5.0553,-5.0797,-5.0811,-5.0825,-5.0927,-5.0957,-5.0982,0,0,0,0,0,0,-4.9933,-4.9992,-4.9966,-5.0136,-5.0195,-5.0249,-5.0337,-5.0307,-5.0384,-5.0371,-5.0359,-5.0374,-5.0525,-5.0553,-5.0467,-5.0731,-5.064,-5.0661,-5.0708,-5.0736,-5.0758,-5.0748,-5.0376,0,0,0,0,0,-4.9974,-5.0071,-5.0116,-5.0262,-5.0293,-5.0311,-5.0364,-5.0355,-5.0414,-5.0438,-5.0472,-5.0531,-5.062,-5.0679,-5.0764,-5.094,-5.0953,-5.1021,-5.1043,-5.1061,-5.1079,-5.1174,-5.1204,-5.0879,-5.0878,-5.0878,0,0,-5.0059,-5.0103,-5.0165,-5.0283,-5.0327,-5.0426,-5.0332,-5.0441,-5.0514,-5.0454,-5.0594,-5.062,-5.0685,-5.0846,-5.0919,-5.0874,-5.1172,-5.1079,-5.1094,-5.1102,-5.1191,-5.1222,-5.125,-5.0888,-5.0886,-5.0885,0,0,-5.0265,-5.0309,-5.0435,-5.0482,-5.055,-5.056,-5.0591,-5.065,-5.0665,-5.0805,-5.0762,-5.0848,-5.1003,-5.105,-5.1095,-5.1318,-5.128,-5.1346,-5.1464,-5.1556,-5.1581,-5.1604,-5.1683,-5.1712,-5.1364,-5.1364,-5.1364,0,-5.0362,-5.0512,-5.0503,-5.0617,-5.0669,-5.062,-5.0747,-5.0792,-5.0884,-5.0921,-5.0869,-5.1063,-5.1102,-5.1274,-5.1328,-5.1366,-5.1399,-5.1339,-5.1579,-5.1601,-5.1622,-5.1698,-5.1727,-5.1371,-5.1371,-5.137,-5.1369,0,-5.0628,-5.0732,-5.0825,-5.0917,-5.0979,-5.1099,-5.1107,-5.1171,-5.1156,-5.1171,-5.1313,-5.1359,-5.1452,-5.1492,-5.1477,-5.1661,-5.1631,-5.158,-5.1488,-5.1661,-5.1731,-5.176,-5.1382,-5.1379,-5.1377,-5.1375,0,0,-5.0898,-5.0983,-5.1018,-5.1058,-5.113,-5.121,-5.1326,-5.1418,-5.1473,-5.1538,-5.1634,-5.1766,-5.1719,-5.1769,-5.1759,-5.184,-5.2014,-5.1779,-5.178,-5.182,-5.2218,-5.2256,-5.229,-5.1989,-5.1994,-5.1999,-5.2212,0,-5.1109,-5.1314,-5.1309,-5.1499,-5.1595,-5.1549,-5.165,-5.1704,-5.1721,-5.1804,-5.1821,-5.1915,-5.1846,-5.1876,-5.1954,-5.1976,-5.2093,-5.196,-5.2077,-5.2081,-5.2063,-5.2327,-5.2368,-5.2567,-5.224,-5.2244,-5.2248,0,-5.1383,-5.1458,-5.1658,-5.1715,-5.1755,-5.1846,-5.1929,-5.2009,-5.2068,-5.2075,-5.2131,-5.2108,-5.2224,-5.2129,-5.2289,-5.2199,-5.2246,-5.2264,-5.2271,-5.2282,-5.2175,-5.2344,-5.2631,-5.2661,-5.2291,-5.2288,-5.2285,0,-5.156,-5.1711,-5.185,-5.1886,-5.1956,-5.2021,-5.2053,-5.2107,-5.2162,-5.2234,-5.2269,-5.2354,-5.24,-5.2465,-5.2465,-5.2396,-5.2626,-5.2531,-5.2633,-5.2634,-5.2684,-5.2681,-5.2982,-5.2715,-5.2715,-5.2714,-5.2713,0,-5.1796,-5.192,-5.193,-5.2016,-5.2153,-5.2145,-5.228,-5.2305,-5.2354,-5.2442,-5.2407,-5.2491,-5.2485,-5.2569,-5.257,-5.2701,-5.2722,-5.273,-5.2728,-5.2733,-5.2732,-5.2764,-5.275,-5.2722,-5.272,-5.2719,-5.2717,0,-5.2018,-5.203,-5.2178,-5.2232,-5.2248,-5.2347,-5.2392,-5.2473,-5.2486,-5.2598,-5.2624,-5.2645,-5.2742,-5.2749,-5.286,-5.286,-5.302,-5.3003,-5.3,-5.2997,-5.31,-5.309,-5.3432,-5.3476,-5.318,-5.3183,-5.3185,0,-5.2168,-5.2262,-5.2326,-5.2384,-5.242,-5.2512,-5.2568,-5.2564,-5.2624,-5.2698,-5.2769,-5.2863,-5.2938,-5.3095,-5.3119,-5.3204,-5.3189,-5.3303,-5.3201,-5.3203,-5.319,-5.3185,-5.3193,-5.3322,-5.3326,-5.3328,-5.333,0,-5.2432,-5.2433,-5.2517,-5.2602,-5.2671,-5.2737,-5.2799,-5.2848,-5.285,-5.2919,-5.3019,-5.3077,-5.3191,-5.3284,-5.3367,-5.3397,-5.3365,-5.3362,-5.339,-5.3396,-5.3391,-5.3395,-5.3054,-5.3354,-5.3352,-5.335,-5.3349,-5.3348,-5.2623,-5.2704,-5.2762,-5.2856,-5.2902,-5.2961,-5.3039,-5.3062,-5.3146,-5.3239,-5.3231,-5.3341,-5.3396,-5.3504,-5.3541,-5.3626,-5.3587,-5.3628,-5.3638,-5.3649,-5.3659,-5.3377,-5.3641,-5.364,-5.364,-5.3639,-5.3638,0,-5.2885,-5.292,-5.3006,-5.3095,-5.3168,-5.3132,-5.3198,-5.3261,-5.3359,-5.3414,-5.3489,-5.3602,-5.3692,-5.3724,-5.381,-5.3872,-5.3859,-5.3895,-5.389,-5.3898,-5.3689,-5.3656,-5.3904,-5.3904,-5.3904,-5.3904,-5.3904,-5.3904,-5.3031,-5.3167,-5.3174,-5.3332,-5.3366,-5.3474,-5.3515,-5.3569,-5.3613,-5.3741,-5.3816,-5.3836,-5.3882,-5.3972,-5.4052,-5.4058,-5.4092,-5.4134,-5.4135,-5.3939,-5.3913,-5.3887,-5.3856,-5.4142,-5.4142,-5.4336,-5.4338,-5.4339]}]]